Regional Weather Roundup
Issued by NWS State College, PA

Home | Current Version | Previous Version | Text Only | Print | Product List | Glossary On
Versions: 1 2 3 4 5 6 7 8 9 10 11 12 13 14 15 16 17 18 19 20 21 22 23 24 25 26 27 28 29 30 31 32 33 34 35 36 37 38 39 40 41 42 43 44 45 46 47 48 49 50
000
ASUS41 KCTP 291410
RWRCTP

REGIONAL WEATHER ROUNDUP
NATIONAL WEATHER SERVICE STATE COLLEGE PA
1000 AM EDT FRI APR 29 2016

Note: "fair" indicates few or no clouds below 12,000 feet with no
significant weather and/or obstructions to visibility.

* = STATION THAT DOES NOT REPORT PRECIPITATION /E.G. RAIN...SNOW...ETC/
    THUNDER OR FOG.

PAZ002>004-007>009-013>016-020>023-029>032-291500-
WESTERN PENNSYLVANIA

CITY           SKY/WX    TMP DP  RH WIND       PRES   REMARKS
ERIE           CLOUDY    47  39  74 NE8       30.01S
MEADVILLE      CLOUDY    44  42  93 VRB3      29.98S
FRANKLIN*      CLOUDY    45  41  87 SE5       30.01S
NEW CASTLE     CLOUDY    47  45  93 SW3       30.00S
BEAVER COUNTY  CLOUDY    46  45  93 SW3       29.99S
BUTLER*        CLOUDY    46  45  93 CALM      30.01S
PITTSBURGH INT CLOUDY    49  44  83 SW7       29.99S FOG
PITTSBURGH     CLOUDY    48  45  89 S8        29.99R FOG
INDIANA*       CLOUDY    48  48 100 W6        30.02F FOG
LATROBE        CLOUDY    50  50 100 SW5       30.00S FOG
WASHINGTON CO* CLOUDY    50  46  87 SW3       30.00F
$$

PAZ004>006-010>012-017>019-024>028-033>037-041-042-045-046-049>053-291500-
CENTRAL PENNSYLVANIA

CITY           SKY/WX    TMP DP  RH WIND       PRES   REMARKS
BRADFORD       CLOUDY    42  40  92 SE9       29.98F
DUBOIS         CLOUDY    43  41  93 E9        29.97F FOG
CLEARFIELD     CLOUDY    44  41  89 SE5       30.01F FOG
JOHNSTOWN      FOG       46  43  89 S8        29.97F VSB 1/2
ALTOONA        CLOUDY    45  43  93 SE7       30.01F FOG
STATE COLLEGE  CLOUDY    45  43  93 CALM      30.03S FOG
WILLIAMSPORT   CLOUDY    49  36  61 NE7       30.05S
SELINSGROVE    CLOUDY    46  38  73 S6        30.08R
FT INDIANTOWN  CLOUDY    45  43  94 E7        30.08S
CAPITAL CITY   LGT RAIN  46  42  86 E6        30.09R FOG
HARRISBURG     HVY RAIN  45  42  89 E7        30.08R FOG
YORK           LGT RAIN  45  43  93 E5        30.06S FOG
$$

PAZ038>040-043-044-047-048-054-055-060>062-067>071-291500-
EASTERN PENNSYLVANIA

CITY           SKY/WX    TMP DP  RH WIND       PRES   REMARKS
SCRANTON       CLOUDY    53  34  48 SE9       30.04S
MOUNT POCONO   CLOUDY    45  34  65 E13       30.05S
ALLENTOWN      CLOUDY    51  37  58 E9        30.08S
QUAKERTOWN*    CLOUDY    48  41  76 E7        30.09S
READING        CLOUDY    48  38  68 VRB6      30.07F
LANCASTER      LGT RAIN  45  43  93 SE5       30.08S
COATESVILLE    CLOUDY    45  45 100 E6        30.08S
POTTSTOWN      CLOUDY    47  42  83 E5        30.09F
BLUE BELL      CLOUDY    46  43  87 E6        30.08S
DOYLESTOWN     CLOUDY    47  40  76 VRB5      30.08S
WILLOW GROVE   NOT AVBL
NORTH PHILA    CLOUDY    51  42  71 E10       30.10S
PHILADELPHIA   CLOUDY    51  41  68 E12       30.08S
$$



USA.gov is the U.S. government's official web portal to all federal, state and local government web resources and services.